Tracking 18850 objects as of 22-Nov-2017
HD Live streaming from Space Station
objects crossing your sky now

FENGYUN 1C DEB

Track FENGYUN 1C DEB now!
10-day predictions


NORAD ID: 33733
Int'l Code: 1999-025DHW
Perigee: 807.0 km
Apogee: 964.5 km
Inclination: 99.2 °
Period: 102.5 minutes
Semi major axis: 7256 km
RCS: 0.0057 m2 (small)
Launch date: May 10, 1999
Source: People's Republic of China (PRC)
Launch site: Taiyaun Space Center, China (TSC)

Note: This is SATELLITE DEBRIS
aabbcc
Your satellite tracking list
Your tracking list is empty




NASA's NSSDC Master Catalog

Two Line Element Set (TLE):
1 33733U 99025DHW 17319.50193340 +.00001584 +00000-0 +97058-3 0  9990
2 33733 099.1663 305.3921 0108461 150.8172 336.4818 14.04396219488543
Source of the keplerian elements: AFSPC